Terminal Aerodrome Forecast
Issued by NWS

Home | Current Version | Previous Version | Graphics & Text | Print | Product List | Glossary On
Versions: 1 2 3 4 5 6 7 8 9 10 11 12 13 14 15 16 17 18
000
FTUS43 KGRB 181600 AAB
TAFCWA
TAF AMD
KCWA 181638Z 1817/1912 35012G18KT P6SM BKN023
      TEMPO 1817/1819 SCT023 BKN035
     FM181900 32007KT P6SM SCT035
     FM190100 VRB03KT P6SM SKC=

USA.gov is the U.S. government's official web portal to all federal, state and local government web resources and services.